Location: Karcze
(52.0945°N, 22.4786°E)
Time: 18:47:09
(UTC+00:00)

Vanguard 3 - Visible Passes

Search period start: 27 July 2021 00:00
Search period end: 06 August 2021 00:00
Orbit: 508 x 3261 km, 33.4° (Epoch: 26 July)

Date Brightness Start Highest point End Pass type
(mag) Time Alt. Az. Time Alt. Az. Time Alt. Az.
27 Jul 10.3 19:58:57 10° WSW 20:16:20 41° S 20:31:40 10° ESE visible
27 Jul 10.2 22:14:16 10° W 22:29:39 31° SSW 22:36:15 24° S visible
28 Jul 10.7 00:35:18 10° WSW 00:40:40 12° SW 00:40:40 12° SW visible
28 Jul 10.4 18:43:33 10° SW 19:00:15 41° S 19:16:45 10° ESE visible
28 Jul 10.3 20:57:21 10° WSW 21:14:15 37° SSW 21:24:58 20° SSE visible
28 Jul 10.4 23:14:28 10° W 23:26:36 21° SW 23:29:24 20° SSW visible
29 Jul 10.4 19:41:18 10° WSW 19:58:21 41° S 20:13:47 11° SE visible
29 Jul 10.3 21:56:28 10° W 22:11:46 30° SSW 22:18:13 24° S visible
30 Jul 10.8 00:18:38 10° WSW 00:22:40 11° SW 00:22:40 11° SW visible
30 Jul 10.4 20:39:41 10° WSW 20:56:18 37° SSW 21:07:07 20° SSE visible
30 Jul 10.5 22:56:52 10° W 23:08:43 20° SW 23:11:34 19° SSW visible
31 Jul 10.4 19:23:50 10° WSW 19:40:22 41° S 19:56:05 12° SE visible
31 Jul 10.4 21:38:50 10° W 21:53:49 29° SSW 22:00:32 23° S visible
01 Aug 11.0 00:03:47 10° WSW 00:04:59 10° SW 00:04:59 10° SW visible
01 Aug 10.5 20:22:11 10° WSW 20:38:18 35° SSW 20:49:33 19° SSE visible
01 Aug 10.7 22:39:30 10° W 22:50:47 19° SW 22:54:01 18° SSW visible
02 Aug 10.5 19:06:31 10° WSW 19:22:22 40° S 19:38:38 11° SE visible
02 Aug 10.6 21:21:24 10° W 21:35:49 27° SSW 21:43:06 21° S visible
03 Aug 10.6 20:04:52 10° WSW 20:20:17 34° SSW 20:32:13 18° SSE visible
03 Aug 10.8 22:22:27 10° WSW 22:32:47 17° SW 22:36:41 16° SSW visible
04 Aug 10.5 18:49:23 10° WSW 19:04:25 38° SSW 19:21:21 10° SE visible
04 Aug 10.7 21:04:10 10° W 21:17:48 25° SW 21:25:51 19° S visible
05 Aug 10.7 19:47:44 10° WSW 20:02:18 32° SSW 20:15:05 15° SSE visible
05 Aug 11.0 22:05:50 10° WSW 22:14:48 15° SW 22:19:33 14° SSW visible
